Time,TemperatureF,DewpointF,PressureIn,WindDirection,WindDirectionDegrees,WindSpeedMPH,WindSpeedGustMPH,Humidity,HourlyPrecipIn,Conditions,Clouds,dailyrainin,SolarRadiationWatts/m^2,SoftwareType,DateUTC
2013-03-04 00:01:00,26.0,14.0,-100.00,SE,127,11.0,19.0,60,0.00,,,0.00,0.000000,,2013-03-04 06:01:00,
2013-03-04 00:11:00,25.0,16.0,-100.00,SE,141,16.0,20.0,68,0.00,,,0.00,0.000000,,2013-03-04 06:11:00,
2013-03-04 00:32:00,25.0,16.0,-100.00,SE,141,16.0,20.0,68,0.00,,,0.00,0.000000,,2013-03-04 06:32:00,
2013-03-04 00:42:00,25.0,16.0,-100.00,SE,141,16.0,20.0,68,0.00,,,0.00,0.000000,,2013-03-04 06:42:00,
2013-03-04 00:52:00,25.0,16.0,-100.00,SE,141,16.0,20.0,68,0.00,,,0.00,0.000000,,2013-03-04 06:52:00,
2013-03-04 01:01:00,25.0,16.0,-100.00,SE,141,16.0,20.0,68,0.00,,,0.00,0.000000,,2013-03-04 07:01:00,
2013-03-04 01:11:00,23.0,21.0,-100.00,ESE,120,13.0,22.0,91,0.00,,,0.00,0.000000,,2013-03-04 07:11:00,
2013-03-04 01:32:00,23.0,21.0,-100.00,ESE,120,13.0,22.0,91,0.00,,,0.00,0.000000,,2013-03-04 07:32:00,
2013-03-04 01:42:00,23.0,21.0,-100.00,ESE,120,13.0,22.0,91,0.00,,,0.00,0.000000,,2013-03-04 07:42:00,
2013-03-04 01:52:00,23.0,21.0,-100.00,ESE,120,13.0,22.0,91,0.00,,,0.00,0.000000,,2013-03-04 07:52:00,
2013-03-04 02:02:00,23.0,21.0,-100.00,ESE,120,13.0,22.0,91,0.00,,,0.00,0.000000,,2013-03-04 08:02:00,
2013-03-04 02:11:00,23.0,21.0,-100.00,ESE,108,12.0,19.0,92,0.00,,,0.00,0.000000,,2013-03-04 08:11:00,
2013-03-04 02:42:00,23.0,21.0,-100.00,ESE,108,12.0,19.0,92,0.00,,,0.00,0.000000,,2013-03-04 08:42:00,
2013-03-04 02:52:00,23.0,21.0,-100.00,ESE,108,12.0,19.0,92,0.00,,,0.00,0.000000,,2013-03-04 08:52:00,
2013-03-04 03:01:00,23.0,21.0,-100.00,ESE,108,12.0,19.0,92,0.00,,,0.00,0.000000,,2013-03-04 09:01:00,
2013-03-04 03:11:00,22.0,21.0,-100.00,East,94,14.0,22.0,94,0.00,,,0.00,0.000000,,2013-03-04 09:11:00,
2013-03-04 03:32:00,22.0,21.0,-100.00,East,94,14.0,22.0,94,0.00,,,0.00,0.000000,,2013-03-04 09:32:00,
2013-03-04 03:42:00,22.0,21.0,-100.00,East,94,14.0,22.0,94,0.00,,,0.00,0.000000,,2013-03-04 09:42:00,
2013-03-04 03:52:00,22.0,21.0,-100.00,East,94,14.0,22.0,94,0.00,,,0.00,0.000000,,2013-03-04 09:52:00,
2013-03-04 04:01:00,22.0,21.0,-100.00,East,94,14.0,22.0,94,0.00,,,0.00,0.000000,,2013-03-04 10:01:00,
2013-03-04 04:11:00,22.0,21.0,-100.00,East,96,13.0,21.0,95,0.00,,,0.00,0.000000,,2013-03-04 10:11:00,
2013-03-04 04:32:00,22.0,21.0,-100.00,East,96,13.0,21.0,95,0.00,,,0.00,0.000000,,2013-03-04 10:32:00,
2013-03-04 04:42:00,22.0,21.0,-100.00,East,96,13.0,21.0,95,0.00,,,0.00,0.000000,,2013-03-04 10:42:00,
2013-03-04 04:52:00,22.0,21.0,-100.00,East,96,13.0,21.0,95,0.00,,,0.00,0.000000,,2013-03-04 10:52:00,
2013-03-04 05:02:00,22.0,21.0,-100.00,East,96,13.0,21.0,95,0.00,,,0.00,0.000000,,2013-03-04 11:02:00,
2013-03-04 05:11:00,22.0,21.0,-100.00,East,99,14.0,20.0,95,0.00,,,0.00,0.000000,,2013-03-04 11:11:00,
2013-03-04 05:32:00,22.0,21.0,-100.00,East,99,14.0,20.0,95,0.00,,,0.00,0.000000,,2013-03-04 11:32:00,
2013-03-04 05:42:00,22.0,21.0,-100.00,East,99,14.0,20.0,95,0.00,,,0.00,0.000000,,2013-03-04 11:42:00,
2013-03-04 05:52:00,22.0,21.0,-100.00,East,99,14.0,20.0,95,0.00,,,0.00,0.000000,,2013-03-04 11:52:00,
2013-03-04 06:01:00,22.0,21.0,-100.00,East,99,14.0,20.0,95,0.00,,,0.00,0.000000,,2013-03-04 12:01:00,
2013-03-04 06:11:00,22.0,21.0,-100.00,East,94,15.0,21.0,95,0.00,,,0.00,0.000000,,2013-03-04 12:11:00,
2013-03-04 06:32:00,22.0,21.0,-100.00,East,94,15.0,21.0,95,0.00,,,0.00,0.000000,,2013-03-04 12:32:00,
2013-03-04 06:42:00,22.0,21.0,-100.00,East,94,15.0,21.0,95,0.00,,,0.00,0.000000,,2013-03-04 12:42:00,
2013-03-04 06:53:00,22.0,21.0,-100.00,East,94,15.0,21.0,95,0.00,,,0.00,0.000000,,2013-03-04 12:53:00,
2013-03-04 07:02:00,22.0,21.0,-100.00,East,94,15.0,21.0,95,0.00,,,0.00,0.000000,,2013-03-04 13:02:00,
2013-03-04 07:11:00,22.0,21.0,-100.00,East,95,16.0,21.0,95,0.00,,,0.00,1.000000,,2013-03-04 13:11:00,
2013-03-04 07:42:00,22.0,21.0,-100.00,East,95,16.0,21.0,95,0.00,,,0.00,1.000000,,2013-03-04 13:42:00,
2013-03-04 07:52:00,22.0,21.0,-100.00,East,95,16.0,21.0,95,0.00,,,0.00,1.000000,,2013-03-04 13:52:00,
2013-03-04 08:01:00,22.0,21.0,-100.00,East,95,16.0,21.0,95,0.00,,,0.00,1.000000,,2013-03-04 14:01:00,
2013-03-04 08:11:00,22.0,21.0,-100.00,East,96,15.0,22.0,94,0.00,,,0.00,26.000000,,2013-03-04 14:11:00,
2013-03-04 08:32:00,22.0,21.0,-100.00,East,96,15.0,22.0,94,0.00,,,0.00,26.000000,,2013-03-04 14:32:00,
2013-03-04 08:42:00,22.0,21.0,-100.00,East,96,15.0,22.0,94,0.00,,,0.00,26.000000,,2013-03-04 14:42:00,
2013-03-04 08:52:00,22.0,21.0,-100.00,East,96,15.0,22.0,94,0.00,,,0.00,26.000000,,2013-03-04 14:52:00,
2013-03-04 09:01:00,22.0,21.0,-100.00,East,96,15.0,22.0,94,0.00,,,0.00,26.000000,,2013-03-04 15:01:00,
2013-03-04 09:11:00,23.0,21.0,-100.00,East,99,16.0,23.0,92,0.00,,,0.00,81.000000,,2013-03-04 15:11:00,
2013-03-04 09:42:00,23.0,21.0,-100.00,East,99,16.0,23.0,92,0.00,,,0.00,81.000000,,2013-03-04 15:42:00,
2013-03-04 09:52:00,23.0,21.0,-100.00,East,99,16.0,23.0,92,0.00,,,0.00,81.000000,,2013-03-04 15:52:00,
2013-03-04 10:02:00,23.0,21.0,-100.00,East,99,16.0,23.0,92,0.00,,,0.00,81.000000,,2013-03-04 16:02:00,
2013-03-04 10:11:00,24.0,21.0,-100.00,ESE,104,17.0,25.0,89,0.00,,,0.00,145.000000,,2013-03-04 16:11:00,
2013-03-04 10:42:00,24.0,21.0,-100.00,ESE,104,17.0,25.0,89,0.00,,,0.00,145.000000,,2013-03-04 16:42:00,
2013-03-04 10:52:00,24.0,21.0,-100.00,ESE,104,17.0,25.0,89,0.00,,,0.00,145.000000,,2013-03-04 16:52:00,
2013-03-04 11:02:00,24.0,21.0,-100.00,ESE,104,17.0,25.0,89,0.00,,,0.00,145.000000,,2013-03-04 17:02:00,
2013-03-04 11:11:00,24.0,21.0,-100.00,ESE,109,15.0,23.0,87,0.00,,,0.00,235.000000,,2013-03-04 17:11:00,
2013-03-04 11:42:00,24.0,21.0,-100.00,ESE,109,15.0,23.0,87,0.00,,,0.00,235.000000,,2013-03-04 17:42:00,
2013-03-04 11:52:00,24.0,21.0,-100.00,ESE,109,15.0,23.0,87,0.00,,,0.00,235.000000,,2013-03-04 17:52:00,
2013-03-04 12:01:00,24.0,21.0,-100.00,ESE,109,15.0,23.0,87,0.00,,,0.00,235.000000,,2013-03-04 18:01:00,
2013-03-04 12:11:00,25.0,21.0,-100.00,ESE,110,14.0,21.0,86,0.00,,,0.00,266.000000,,2013-03-04 18:11:00,
2013-03-04 12:32:00,25.0,21.0,-100.00,ESE,110,14.0,21.0,86,0.00,,,0.00,266.000000,,2013-03-04 18:32:00,
2013-03-04 12:42:00,25.0,21.0,-100.00,ESE,110,14.0,21.0,86,0.00,,,0.00,266.000000,,2013-03-04 18:42:00,
2013-03-04 12:52:00,25.0,21.0,-100.00,ESE,110,14.0,21.0,86,0.00,,,0.00,266.000000,,2013-03-04 18:52:00,
2013-03-04 13:02:00,25.0,21.0,-100.00,ESE,110,14.0,21.0,86,0.00,,,0.00,266.000000,,2013-03-04 19:02:00,
2013-03-04 13:11:00,25.0,21.0,-100.00,ESE,104,14.0,22.0,86,0.00,,,0.00,232.000000,,2013-03-04 19:11:00,
2013-03-04 13:32:00,25.0,21.0,-100.00,ESE,104,14.0,22.0,86,0.00,,,0.00,232.000000,,2013-03-04 19:32:00,
2013-03-04 13:42:00,25.0,21.0,-100.00,ESE,104,14.0,22.0,86,0.00,,,0.00,232.000000,,2013-03-04 19:42:00,
2013-03-04 13:52:00,25.0,21.0,-100.00,ESE,104,14.0,22.0,86,0.00,,,0.00,232.000000,,2013-03-04 19:52:00,
2013-03-04 14:02:00,25.0,21.0,-100.00,ESE,104,14.0,22.0,86,0.00,,,0.00,232.000000,,2013-03-04 20:02:00,
2013-03-04 14:11:00,25.0,21.0,-100.00,ESE,105,13.0,19.0,84,0.00,,,0.00,220.000000,,2013-03-04 20:11:00,
2013-03-04 14:32:00,25.0,21.0,-100.00,ESE,105,13.0,19.0,84,0.00,,,0.00,220.000000,,2013-03-04 20:32:00,
2013-03-04 14:42:00,25.0,21.0,-100.00,ESE,105,13.0,19.0,84,0.00,,,0.00,220.000000,,2013-03-04 20:42:00,
2013-03-04 14:52:00,25.0,21.0,-100.00,ESE,105,13.0,19.0,84,0.00,,,0.00,220.000000,,2013-03-04 20:52:00,
2013-03-04 15:02:00,25.0,21.0,-100.00,ESE,105,13.0,19.0,84,0.00,,,0.00,220.000000,,2013-03-04 21:02:00,
2013-03-04 15:11:00,24.0,19.0,-100.00,ESE,103,14.0,20.0,82,0.00,,,0.00,158.000000,,2013-03-04 21:11:00,
2013-03-04 15:32:00,24.0,19.0,-100.00,ESE,103,14.0,20.0,82,0.00,,,0.00,158.000000,,2013-03-04 21:32:00,
2013-03-04 15:43:00,24.0,19.0,-100.00,ESE,103,14.0,20.0,82,0.00,,,0.00,158.000000,,2013-03-04 21:43:00,
2013-03-04 15:53:00,24.0,19.0,-100.00,ESE,103,14.0,20.0,82,0.00,,,0.00,158.000000,,2013-03-04 21:53:00,
2013-03-04 16:02:00,24.0,19.0,-100.00,ESE,103,14.0,20.0,82,0.00,,,0.00,158.000000,,2013-03-04 22:02:00,
2013-03-04 16:11:00,24.0,18.0,-100.00,ESE,105,13.0,19.0,79,0.00,,,0.00,91.000000,,2013-03-04 22:11:00,
2013-03-04 16:32:00,24.0,18.0,-100.00,ESE,105,13.0,19.0,79,0.00,,,0.00,91.000000,,2013-03-04 22:32:00,
2013-03-04 16:43:00,24.0,18.0,-100.00,ESE,105,13.0,19.0,79,0.00,,,0.00,91.000000,,2013-03-04 22:43:00,
2013-03-04 16:52:00,24.0,18.0,-100.00,ESE,105,13.0,19.0,79,0.00,,,0.00,91.000000,,2013-03-04 22:52:00,
2013-03-04 17:02:00,24.0,18.0,-100.00,ESE,105,13.0,19.0,79,0.00,,,0.00,91.000000,,2013-03-04 23:02:00,
2013-03-04 17:11:00,24.0,20.0,-100.00,ESE,103,10.0,20.0,84,0.00,,,0.00,66.000000,,2013-03-04 23:11:00,
2013-03-04 17:32:00,24.0,20.0,-100.00,ESE,103,10.0,20.0,84,0.00,,,0.00,66.000000,,2013-03-04 23:32:00,
2013-03-04 17:42:00,24.0,20.0,-100.00,ESE,103,10.0,20.0,84,0.00,,,0.00,66.000000,,2013-03-04 23:42:00,
2013-03-04 17:52:00,24.0,20.0,-100.00,ESE,103,10.0,20.0,84,0.00,,,0.00,66.000000,,2013-03-04 23:52:00,
2013-03-04 18:02:00,24.0,20.0,-100.00,ESE,103,10.0,20.0,84,0.00,,,0.00,66.000000,,2013-03-05 00:02:00,
2013-03-04 18:11:00,23.0,17.0,-100.00,East,95,10.0,16.0,76,0.00,,,0.00,22.000000,,2013-03-05 00:11:00,
2013-03-04 18:42:00,23.0,17.0,-100.00,East,95,10.0,16.0,76,0.00,,,0.00,22.000000,,2013-03-05 00:42:00,
2013-03-04 18:52:00,23.0,17.0,-100.00,East,95,10.0,16.0,76,0.00,,,0.00,22.000000,,2013-03-05 00:52:00,
2013-03-04 19:01:00,23.0,17.0,-100.00,East,95,10.0,16.0,76,0.00,,,0.00,22.000000,,2013-03-05 01:01:00,
2013-03-04 20:11:00,22.0,21.0,-100.00,East,100,7.0,12.0,94,-99.99,,,0.00,0.000000,,2013-03-05 02:11:00,
2013-03-04 20:42:00,22.0,21.0,-100.00,East,100,7.0,12.0,94,-99.99,,,0.00,0.000000,,2013-03-05 02:42:00,
2013-03-04 20:52:00,22.0,21.0,-100.00,East,100,7.0,12.0,94,-99.99,,,0.00,0.000000,,2013-03-05 02:52:00,
2013-03-04 21:02:00,22.0,21.0,-100.00,East,100,7.0,12.0,94,-99.99,,,0.00,0.000000,,2013-03-05 03:02:00,
2013-03-04 21:11:00,22.0,21.0,-100.00,East,94,8.0,12.0,96,0.00,,,0.00,0.000000,,2013-03-05 03:11:00,
2013-03-04 21:32:00,22.0,21.0,-100.00,East,94,8.0,12.0,96,0.00,,,0.00,0.000000,,2013-03-05 03:32:00,
2013-03-04 21:42:00,22.0,21.0,-100.00,East,94,8.0,12.0,96,0.00,,,0.00,0.000000,,2013-03-05 03:42:00,
2013-03-04 21:52:00,22.0,21.0,-100.00,East,94,8.0,12.0,96,0.00,,,0.00,0.000000,,2013-03-05 03:52:00,
2013-03-04 22:02:00,22.0,21.0,-100.00,East,94,8.0,12.0,96,0.00,,,0.00,0.000000,,2013-03-05 04:02:00,
2013-03-04 22:11:00,22.0,21.0,-100.00,ESE,109,8.0,12.0,96,0.00,,,0.00,0.000000,,2013-03-05 04:11:00,
2013-03-04 22:32:00,22.0,21.0,-100.00,ESE,109,8.0,12.0,96,0.00,,,0.00,0.000000,,2013-03-05 04:32:00,
2013-03-04 22:42:00,22.0,21.0,-100.00,ESE,109,8.0,12.0,96,0.00,,,0.00,0.000000,,2013-03-05 04:42:00,
2013-03-04 22:52:00,22.0,21.0,-100.00,ESE,109,8.0,12.0,96,0.00,,,0.00,0.000000,,2013-03-05 04:52:00,
2013-03-04 23:02:00,22.0,21.0,-100.00,ESE,109,8.0,12.0,96,0.00,,,0.00,0.000000,,2013-03-05 05:02:00,
2013-03-04 23:11:00,22.0,21.0,-100.00,ESE,102,10.0,13.0,97,0.00,,,0.00,0.000000,,2013-03-05 05:11:00,
2013-03-04 23:32:00,22.0,21.0,-100.00,ESE,102,10.0,13.0,97,0.00,,,0.00,0.000000,,2013-03-05 05:32:00,
2013-03-04 23:42:00,22.0,21.0,-100.00,ESE,102,10.0,13.0,97,0.00,,,0.00,0.000000,,2013-03-05 05:42:00,
2013-03-04 23:52:00,22.0,21.0,-100.00,ESE,102,10.0,13.0,97,0.00,,,0.00,0.000000,,2013-03-05 05:52:00,